THA112 RCTP-VTBS

Flight info

Callsign THA112
Flight time 3h 8m
Altitude 38000
Route CHALI1A CHALI T3 MKG A1 KADLO T1 KAPLI DCT MADRU DCT SULUX DCT IGLEG DCT IKELA/K0906F380 A1 PAPRA/N0490F380 A1 UBL Y20 GRASO Y13 RUKSA EASTE1C
Aircraft B77W/H-SDE1E2E3FGHIJ2J3J4J5M1RWXY/LB1D1

Departure

Time 2026-05-04 07:01
Airport Taiwan Taoyuan International Airport (RCTP)

Arrival

Time 2026-05-04 10:10
Airport Suvarnabhumi Airport (VTBS)
Time Latitude Longitude Altitude Speed Heading
2026-05-04 07:01 25.26913 121.14395 12848 ft 396 kts 274°
2026-05-04 07:01 25.26755 121.11376 13908 ft 394 kts 254°
2026-05-04 07:02 25.25774 121.08566 14957 ft 393 kts 237°
2026-05-04 07:02 25.24104 121.06181 15840 ft 395 kts 225°
2026-05-04 07:02 25.22231 121.03921 16633 ft 403 kts 225°
2026-05-04 07:02 25.20336 121.01606 17530 ft 408 kts 225°
2026-05-04 07:03 25.18415 120.99458 18399 ft 411 kts 221°
2026-05-04 07:03 25.16317 120.97284 19270 ft 416 kts 221°
2026-05-04 07:03 25.14198 120.95079 20072 ft 422 kts 221°
2026-05-04 07:03 25.12065 120.92820 20852 ft 427 kts 222°
2026-05-04 07:04 25.09923 120.90519 21612 ft 432 kts 222°
2026-05-04 07:04 25.07762 120.88184 22334 ft 437 kts 223°
2026-05-04 07:04 25.05611 120.85856 23035 ft 442 kts 223°
2026-05-04 07:04 25.03400 120.83465 23725 ft 447 kts 223°
2026-05-04 07:05 25.01170 120.81058 24373 ft 451 kts 223°
2026-05-04 07:05 24.98915 120.78627 24998 ft 456 kts 223°
2026-05-04 07:05 24.96636 120.76172 25608 ft 460 kts 223°
2026-05-04 07:05 24.94336 120.73698 26192 ft 464 kts 223°
2026-05-04 07:06 24.89670 120.68682 27280 ft 472 kts 223°
2026-05-04 07:06 24.87311 120.66148 27788 ft 476 kts 223°
2026-05-04 07:06 24.84931 120.63593 28293 ft 480 kts 223°
2026-05-04 07:07 24.82536 120.61022 28739 ft 483 kts 223°
2026-05-04 07:08 24.64526 120.44164 32002 ft 483 kts 211°
2026-05-04 07:09 24.61708 120.42163 32484 ft 482 kts 212°
2026-05-04 07:09 24.58915 120.40127 32925 ft 482 kts 212°
2026-05-04 07:09 24.56143 120.38059 33368 ft 481 kts 213°
2026-05-04 07:09 24.53393 120.35978 33804 ft 480 kts 213°
2026-05-04 07:10 24.50649 120.33894 34231 ft 479 kts 213°
2026-05-04 07:10 24.47908 120.31818 34632 ft 478 kts 213°
2026-05-04 07:12 24.28954 120.17191 37024 ft 475 kts 213°
2026-05-04 07:12 24.27161 120.15805 37214 ft 475 kts 213°
2026-05-04 07:12 24.24463 120.13720 37496 ft 475 kts 213°
2026-05-04 07:12 24.20839 120.10921 37712 ft 479 kts 213°
2026-05-04 07:13 24.19034 120.09529 37745 ft 481 kts 213°
2026-05-04 07:13 24.13570 120.05312 37772 ft 478 kts 213°
2026-05-04 07:14 24.00215 119.94982 37784 ft 472 kts 213°
2026-05-04 07:15 23.94852 119.90849 37785 ft 472 kts 213°
2026-05-04 07:15 23.89475 119.86711 37785 ft 473 kts 213°
2026-05-04 07:16 23.84086 119.82565 37785 ft 474 kts 213°
2026-05-04 07:16 23.78682 119.78412 37785 ft 475 kts 213°
2026-05-04 07:17 23.73269 119.74255 37784 ft 476 kts 213°
2026-05-04 07:17 23.67849 119.70096 37784 ft 477 kts 213°
2026-05-04 07:18 23.62462 119.65862 37779 ft 478 kts 218°
2026-05-04 07:18 23.57827 119.60657 37791 ft 480 kts 230°
2026-05-04 07:19 23.54093 119.54606 37791 ft 482 kts 236°
2026-05-04 07:19 23.50592 119.48437 37782 ft 482 kts 236°
2026-05-04 07:20 23.47050 119.42240 37784 ft 482 kts 236°
2026-05-04 07:20 23.43481 119.36075 37784 ft 481 kts 236°
2026-05-04 07:22 23.29131 119.11486 37782 ft 481 kts 236°
2026-05-04 07:23 23.25554 119.05339 37785 ft 481 kts 236°
2026-05-04 07:23 23.22262 118.99708 37783 ft 481 kts 236°
2026-05-04 07:24 23.18784 118.93776 37783 ft 481 kts 236°
2026-05-04 07:24 23.15188 118.87646 37784 ft 481 kts 236°
2026-05-04 07:26 23.00778 118.63146 37784 ft 481 kts 236°
2026-05-04 07:27 22.97091 118.57170 37777 ft 479 kts 228°
2026-05-04 07:27 22.92237 118.52298 37791 ft 475 kts 213°
2026-05-04 07:28 22.86527 118.48749 37787 ft 473 kts 206°
2026-05-04 07:28 22.80703 118.45414 37784 ft 474 kts 207°
2026-05-04 07:29 22.74902 118.42009 37784 ft 474 kts 207°
2026-05-04 07:29 22.69110 118.38576 37784 ft 475 kts 207°
2026-05-04 07:30 22.63306 118.35157 37784 ft 475 kts 207°
2026-05-04 07:30 22.57497 118.31752 37783 ft 475 kts 207°
2026-05-04 07:31 22.51684 118.28345 37784 ft 475 kts 207°
2026-05-04 07:33 22.28503 118.14752 37783 ft 474 kts 207°
2026-05-04 07:33 22.22702 118.11356 37784 ft 474 kts 207°
2026-05-04 07:34 22.16903 118.07976 37783 ft 474 kts 207°
2026-05-04 07:34 22.11098 118.04595 37784 ft 474 kts 207°
2026-05-04 07:35 22.05292 118.01215 37784 ft 474 kts 207°
2026-05-04 07:35 21.99603 117.97905 37784 ft 474 kts 207°
2026-05-04 07:36 21.93801 117.94532 37783 ft 474 kts 207°
2026-05-04 07:38 21.70602 117.81077 37784 ft 474 kts 207°
2026-05-04 07:38 21.64793 117.77715 37783 ft 474 kts 207°
2026-05-04 07:39 21.58980 117.74355 37784 ft 474 kts 207°
2026-05-04 07:39 21.53166 117.70997 37783 ft 474 kts 207°
2026-05-04 07:40 21.47355 117.67643 37784 ft 474 kts 207°
2026-05-04 07:40 21.41541 117.64291 37783 ft 474 kts 207°
2026-05-04 07:41 21.35724 117.60940 37784 ft 474 kts 207°
2026-05-04 07:41 21.29911 117.57594 37784 ft 474 kts 207°
2026-05-04 07:42 21.24093 117.54248 37784 ft 474 kts 207°
2026-05-04 07:42 21.18970 117.49919 37787 ft 477 kts 233°
2026-05-04 07:43 21.17402 117.46832 37799 ft 481 kts 247°
2026-05-04 07:43 21.16498 117.43376 37775 ft 485 kts 261°
2026-05-04 07:43 21.16408 117.36146 37787 ft 488 kts 269°
2026-05-04 07:44 21.16463 117.28860 37789 ft 490 kts 268°
2026-05-04 07:44 21.16365 117.21750 37785 ft 492 kts 265°
2026-05-04 07:45 21.15186 117.14575 37791 ft 489 kts 251°
2026-05-04 07:45 21.12594 117.07863 37796 ft 490 kts 242°
2026-05-04 07:46 21.09520 117.01320 37787 ft 493 kts 241°
2026-05-04 07:46 21.06486 116.94861 37785 ft 496 kts 242°
2026-05-04 07:47 21.03424 116.88243 37780 ft 496 kts 242°
2026-05-04 07:49 20.91354 116.62019 37783 ft 489 kts 242°
2026-05-04 07:49 20.88345 116.55508 37783 ft 488 kts 242°
2026-05-04 07:50 20.85337 116.49006 37784 ft 488 kts 242°
2026-05-04 07:50 20.82325 116.42503 37783 ft 488 kts 242°
2026-05-04 07:51 20.79310 116.36001 37784 ft 489 kts 242°
2026-05-04 07:51 20.76288 116.29491 37785 ft 489 kts 242°
2026-05-04 07:52 20.73261 116.22979 37784 ft 490 kts 242°
2026-05-04 07:52 20.70226 116.16458 37784 ft 490 kts 242°
2026-05-04 07:54 20.58108 115.90496 37784 ft 491 kts 242°
2026-05-04 07:55 20.55056 115.83978 37783 ft 491 kts 242°
2026-05-04 07:55 20.52027 115.77516 37783 ft 490 kts 242°
2026-05-04 07:56 20.48976 115.71013 37784 ft 490 kts 242°
2026-05-04 07:56 20.45921 115.64512 37784 ft 490 kts 242°
2026-05-04 07:57 20.43132 115.58582 37789 ft 493 kts 242°
2026-05-04 07:57 20.40022 115.51980 37794 ft 502 kts 242°
2026-05-04 07:58 20.36867 115.45284 37793 ft 508 kts 242°
2026-05-04 07:58 20.33680 115.38532 37786 ft 511 kts 242°
2026-05-04 07:59 20.30485 115.31772 37782 ft 511 kts 241°
2026-05-04 07:59 20.27292 115.25021 37782 ft 510 kts 241°
2026-05-04 08:00 20.24107 115.18293 37781 ft 508 kts 241°
2026-05-04 08:02 20.11500 114.91740 37783 ft 503 kts 241°
2026-05-04 08:02 20.08360 114.85148 37783 ft 503 kts 241°
2026-05-04 08:03 20.05197 114.78514 37784 ft 503 kts 241°
2026-05-04 08:03 20.02031 114.71881 37784 ft 503 kts 241°
2026-05-04 08:04 19.98863 114.65255 37783 ft 503 kts 241°
2026-05-04 08:04 19.95690 114.58622 37784 ft 504 kts 241°
2026-05-04 08:05 19.93124 114.53265 37783 ft 504 kts 241°
2026-05-04 08:05 19.90039 114.46832 37783 ft 504 kts 241°
2026-05-04 08:06 19.86854 114.40197 37784 ft 504 kts 241°
2026-05-04 08:06 19.83665 114.33562 37783 ft 504 kts 241°
2026-05-04 08:08 19.70994 114.07274 37784 ft 505 kts 241°
2026-05-04 08:11 19.56647 113.77655 37784 ft 504 kts 241°
2026-05-04 08:11 19.51829 113.67741 37784 ft 504 kts 241°
2026-05-04 08:12 19.48611 113.61132 37784 ft 504 kts 241°
2026-05-04 08:12 19.45392 113.54525 37783 ft 504 kts 241°
2026-05-04 08:13 19.42173 113.47927 37783 ft 504 kts 241°
2026-05-04 08:13 19.38950 113.41328 37784 ft 504 kts 241°
2026-05-04 08:14 19.35724 113.34731 37784 ft 504 kts 241°
2026-05-04 08:16 19.22804 113.08381 37783 ft 504 kts 240°
2026-05-04 08:16 19.19567 113.01797 37782 ft 504 kts 240°
2026-05-04 08:17 19.16388 112.95341 37784 ft 504 kts 240°
2026-05-04 08:17 19.13169 112.88808 37784 ft 504 kts 240°
2026-05-04 08:19 19.00183 112.62527 37784 ft 504 kts 240°
2026-05-04 08:20 18.96937 112.55974 37784 ft 504 kts 240°
2026-05-04 08:20 18.93683 112.49412 37783 ft 504 kts 240°
2026-05-04 08:21 18.89829 112.43281 37784 ft 500 kts 227°
2026-05-04 08:21 18.84775 112.38364 37783 ft 497 kts 214°
2026-05-04 08:22 18.79107 112.34201 37782 ft 497 kts 213°
2026-05-04 08:24 18.61343 112.17051 37789 ft 502 kts 234°
2026-05-04 08:24 18.59417 112.13984 37791 ft 502 kts 235°
2026-05-04 08:24 18.55595 112.07813 37782 ft 503 kts 235°
2026-05-04 08:25 18.51749 112.01659 37784 ft 503 kts 234°
2026-05-04 08:25 18.47943 111.95636 37784 ft 503 kts 234°
2026-05-04 08:27 18.32555 111.71504 37783 ft 502 kts 234°
2026-05-04 08:28 18.28671 111.65390 37784 ft 502 kts 234°
2026-05-04 08:28 18.24755 111.59240 37783 ft 502 kts 234°
2026-05-04 08:29 18.20869 111.53132 37784 ft 502 kts 234°
2026-05-04 08:31 18.05312 111.28785 37784 ft 502 kts 234°
2026-05-04 08:33 17.89695 111.04435 37784 ft 503 kts 234°
2026-05-04 08:35 17.74111 110.80237 37784 ft 503 kts 234°
2026-05-04 08:35 17.70193 110.74166 37784 ft 503 kts 234°
2026-05-04 08:37 17.56477 110.52926 37784 ft 503 kts 234°
2026-05-04 08:38 17.52548 110.46868 37784 ft 503 kts 234°
2026-05-04 08:38 17.48618 110.40811 37784 ft 503 kts 234°
2026-05-04 08:40 17.32995 110.16586 37784 ft 503 kts 234°
2026-05-04 08:41 17.29103 110.10510 37784 ft 503 kts 234°
2026-05-04 08:41 17.25200 110.04437 37784 ft 503 kts 234°
2026-05-04 08:42 17.21382 109.98503 37782 ft 503 kts 234°
2026-05-04 08:42 17.17476 109.92438 37784 ft 502 kts 234°
2026-05-04 08:43 17.13575 109.86380 37784 ft 502 kts 234°
2026-05-04 08:43 17.09671 109.80322 37784 ft 502 kts 234°
2026-05-04 08:44 17.05766 109.74266 37783 ft 502 kts 234°
2026-05-04 08:46 16.90138 109.50075 37784 ft 502 kts 234°
2026-05-04 08:46 16.86253 109.44069 37783 ft 502 kts 234°
2026-05-04 08:47 16.84196 109.40891 37784 ft 502 kts 234°
2026-05-04 08:47 16.80884 109.35773 37786 ft 502 kts 234°
2026-05-04 08:48 16.77681 109.30818 37781 ft 503 kts 234°
2026-05-04 08:48 16.74772 109.26312 37785 ft 502 kts 234°
2026-05-04 08:49 16.71652 109.21479 37785 ft 502 kts 234°
2026-05-04 08:50 16.59852 109.03247 37783 ft 503 kts 234°
2026-05-04 08:51 16.57628 108.99815 37785 ft 503 kts 234°
2026-05-04 08:51 16.54041 108.94326 37788 ft 502 kts 233°
2026-05-04 08:52 16.50879 108.89606 37783 ft 502 kts 233°
2026-05-04 08:52 16.48111 108.85491 37782 ft 502 kts 233°
2026-05-04 08:54 16.35253 108.66286 37784 ft 502 kts 233°
2026-05-04 08:55 16.31333 108.60260 37783 ft 503 kts 234°
2026-05-04 08:55 16.27463 108.54197 37784 ft 503 kts 234°
2026-05-04 09:01 15.96143 107.87234 37784 ft 507 kts 252°
2026-05-04 09:01 15.94208 107.80183 37782 ft 508 kts 252°
2026-05-04 09:02 15.92284 107.73127 37783 ft 508 kts 252°
2026-05-04 09:02 15.90348 107.66074 37785 ft 508 kts 252°
2026-05-04 09:03 15.88378 107.59082 37781 ft 508 kts 251°
2026-05-04 09:03 15.86361 107.52055 37789 ft 508 kts 251°
2026-05-04 09:04 15.84346 107.45023 37779 ft 507 kts 251°
2026-05-04 09:04 15.82340 107.38003 37786 ft 507 kts 251°
2026-05-04 09:05 15.80362 107.31075 37767 ft 490 kts 251°
2026-05-04 09:05 15.78433 107.24341 37782 ft 486 kts 251°
2026-05-04 09:06 15.76530 107.17609 37779 ft 486 kts 254°
2026-05-04 09:08 15.70632 106.90301 37786 ft 487 kts 255°
2026-05-04 09:08 15.69130 106.83438 37782 ft 488 kts 255°
2026-05-04 09:09 15.67639 106.76618 37780 ft 488 kts 255°
2026-05-04 09:09 15.66109 106.69758 37771 ft 488 kts 254°
2026-05-04 09:10 15.64600 106.62899 37787 ft 488 kts 255°
2026-05-04 09:10 15.63117 106.56034 37781 ft 487 kts 254°
2026-05-04 09:11 15.61604 106.49182 37786 ft 487 kts 255°
2026-05-04 09:11 15.60119 106.42327 37792 ft 487 kts 255°
2026-05-04 09:12 15.58624 106.35473 37788 ft 487 kts 255°
2026-05-04 09:14 15.52550 106.08047 37783 ft 488 kts 255°
2026-05-04 09:14 15.51041 106.01235 37784 ft 488 kts 255°
2026-05-04 09:15 15.49571 105.94511 37785 ft 488 kts 255°
2026-05-04 09:15 15.48046 105.87659 37783 ft 488 kts 254°
2026-05-04 09:17 15.41169 105.56829 37786 ft 488 kts 255°
2026-05-04 09:18 15.39573 105.49996 37786 ft 488 kts 254°
2026-05-04 09:18 15.38006 105.43327 37779 ft 488 kts 254°
2026-05-04 09:19 15.36410 105.36404 37785 ft 488 kts 255°
2026-05-04 09:19 15.34794 105.29579 37784 ft 487 kts 254°
2026-05-04 09:20 15.33170 105.22808 37783 ft 487 kts 254°
2026-05-04 09:20 15.31540 105.15997 37784 ft 487 kts 254°
2026-05-04 09:21 15.29912 105.09186 37782 ft 487 kts 254°
2026-05-04 09:21 15.28281 105.02375 37783 ft 487 kts 254°
2026-05-04 09:22 15.26678 104.95682 37784 ft 487 kts 254°
2026-05-04 09:22 15.25037 104.88879 37783 ft 487 kts 255°
2026-05-04 09:23 15.24024 104.81929 37786 ft 489 kts 263°
2026-05-04 09:23 15.23508 104.74897 37787 ft 490 kts 264°
2026-05-04 09:25 15.21260 104.46764 37783 ft 490 kts 263°
2026-05-04 09:26 15.20682 104.39731 37783 ft 490 kts 263°
2026-05-04 09:26 15.20104 104.32740 37783 ft 490 kts 263°
2026-05-04 09:27 15.19508 104.25663 37783 ft 490 kts 263°
2026-05-04 09:27 15.18912 104.18632 37783 ft 490 kts 263°
2026-05-04 09:28 15.18320 104.11652 37782 ft 490 kts 263°
2026-05-04 09:28 15.17723 104.04627 37785 ft 490 kts 263°
2026-05-04 09:29 15.17130 103.97680 37783 ft 490 kts 263°
2026-05-04 09:29 15.16528 103.90651 37785 ft 490 kts 263°
2026-05-04 09:30 15.15929 103.83670 37783 ft 490 kts 263°
2026-05-04 09:30 15.14879 103.76723 37782 ft 487 kts 253°
2026-05-04 09:31 15.12804 103.70071 37789 ft 486 kts 249°
2026-05-04 09:31 15.10597 103.63461 37783 ft 486 kts 249°
2026-05-04 09:32 15.08418 103.56842 37783 ft 486 kts 249°
2026-05-04 09:34 14.99804 103.30320 37783 ft 486 kts 249°
2026-05-04 09:34 14.97644 103.23689 37784 ft 486 kts 249°
2026-05-04 09:35 14.95496 103.17106 37783 ft 486 kts 249°
2026-05-04 09:35 14.93331 103.10474 37785 ft 486 kts 249°
2026-05-04 09:37 14.84788 102.84117 37844 ft 472 kts 253°
2026-05-04 09:38 14.83825 102.80946 37856 ft 454 kts 253°
2026-05-04 09:38 14.82892 102.77866 37895 ft 446 kts 253°
2026-05-04 09:38 14.81015 102.71681 37857 ft 457 kts 253°
2026-05-04 09:39 14.79079 102.65355 37845 ft 464 kts 253°
2026-05-04 09:39 14.77125 102.59000 37839 ft 464 kts 253°
2026-05-04 09:40 14.75169 102.52649 37837 ft 463 kts 253°
2026-05-04 09:40 14.73219 102.46320 37838 ft 462 kts 253°
2026-05-04 09:42 14.65473 102.21244 37841 ft 457 kts 253°
2026-05-04 09:43 14.63535 102.14987 37839 ft 457 kts 253°
2026-05-04 09:43 14.61583 102.08690 36803 ft 470 kts 253°
2026-05-04 09:44 14.60581 102.05463 35967 ft 470 kts 253°
2026-05-04 09:44 14.59585 102.02254 35021 ft 471 kts 253°
2026-05-04 09:44 14.58619 101.99138 34087 ft 473 kts 253°
2026-05-04 09:46 14.50733 101.77803 28042 ft 473 kts 247°
2026-05-04 09:46 14.49470 101.74678 27294 ft 470 kts 247°
2026-05-04 09:46 14.47816 101.70568 26312 ft 466 kts 247°
2026-05-04 09:47 14.46582 101.67489 25596 ft 463 kts 247°
2026-05-04 09:47 14.45803 101.65545 25204 ft 459 kts 247°
2026-05-04 09:49 14.39062 101.48742 21306 ft 444 kts 247°
2026-05-04 09:49 14.37884 101.45813 20614 ft 441 kts 247°
2026-05-04 09:49 14.36713 101.42901 19926 ft 438 kts 247°
2026-05-04 09:51 14.29238 101.26996 17709 ft 373 kts 219°
2026-05-04 09:51 14.27229 101.25341 17435 ft 367 kts 219°
2026-05-04 09:51 14.25244 101.23697 17104 ft 365 kts 219°
2026-05-04 09:51 14.23270 101.22044 16697 ft 367 kts 219°
2026-05-04 09:52 14.21330 101.20408 16479 ft 364 kts 219°
2026-05-04 09:52 14.19369 101.18747 16174 ft 365 kts 219°
2026-05-04 09:52 14.17411 101.17083 15878 ft 365 kts 219°
2026-05-04 09:52 14.15458 101.15422 15554 ft 364 kts 219°
2026-05-04 09:53 14.13512 101.13765 15251 ft 362 kts 219°
2026-05-04 09:53 14.11573 101.12115 14947 ft 361 kts 219°
2026-05-04 09:53 14.09657 101.10485 14658 ft 355 kts 219°
2026-05-04 09:53 14.07770 101.08881 14336 ft 349 kts 219°
2026-05-04 09:54 14.05876 101.07378 14042 ft 338 kts 210°
2026-05-04 09:54 14.03737 101.06522 14023 ft 325 kts 193°
2026-05-04 09:54 14.01578 101.05992 13970 ft 316 kts 193°
2026-05-04 09:54 13.99458 101.05448 13928 ft 315 kts 194°
2026-05-04 09:55 13.97343 101.04882 13899 ft 315 kts 194°
2026-05-04 09:55 13.95219 101.04301 13848 ft 313 kts 195°
2026-05-04 09:55 13.93196 101.03485 13566 ft 309 kts 205°
2026-05-04 09:55 13.91313 101.02495 12874 ft 301 kts 207°
2026-05-04 09:56 13.89476 101.01468 11997 ft 300 kts 208°
2026-05-04 09:56 13.87661 101.00452 11477 ft 288 kts 207°
2026-05-04 09:56 13.85939 100.99499 11273 ft 302 kts 207°
2026-05-04 09:56 13.84041 100.98462 10991 ft 312 kts 207°
2026-05-04 09:57 13.82129 100.97428 10876 ft 307 kts 207°
2026-05-04 09:57 13.80269 100.96430 10678 ft 304 kts 207°
2026-05-04 09:57 13.78395 100.95428 10445 ft 303 kts 206°
2026-05-04 09:57 13.76532 100.94436 10198 ft 300 kts 206°
2026-05-04 09:58 13.74689 100.93459 9953 ft 295 kts 206°
2026-05-04 09:58 13.72874 100.92495 9709 ft 291 kts 206°
2026-05-04 09:58 13.71091 100.91548 9478 ft 287 kts 206°
2026-05-04 10:00 13.58831 100.85050 7087 ft 272 kts 206°
2026-05-04 10:00 13.57152 100.84163 6708 ft 272 kts 206°
2026-05-04 10:02 13.45271 100.78098 4372 ft 272 kts 195°
2026-05-04 10:04 13.41677 100.70784 2130 ft 213 kts 337°
2026-05-04 10:04 13.43037 100.70205 2063 ft 210 kts 339°
2026-05-04 10:04 13.44424 100.69832 2076 ft 206 kts
2026-05-04 10:04 13.45826 100.70013 2057 ft 199 kts 12°
2026-05-04 10:05 13.47169 100.70301 2049 ft 195 kts 15°
2026-05-04 10:05 13.48482 100.70647 2049 ft 193 kts 16°
2026-05-04 10:05 13.49786 100.70996 2053 ft 191 kts 16°
2026-05-04 10:05 13.51017 100.71321 2038 ft 170 kts 16°
2026-05-04 10:06 13.52092 100.71605 2012 ft 153 kts 17°
2026-05-04 10:06 13.53112 100.71864 2072 ft 150 kts 17°
2026-05-04 10:06 13.54141 100.72139 2055 ft 154 kts 16°
2026-05-04 10:08 13.60250 100.73756 1130 ft 143 kts 20°
2026-05-04 10:08 13.61179 100.74013 937 ft 135 kts 19°
2026-05-04 10:08 13.62096 100.74250 830 ft 137 kts 17°
2026-05-04 10:08 13.63027 100.74504 688 ft 138 kts 15°
2026-05-04 10:09 13.63960 100.74740 457 ft 135 kts 12°
2026-05-04 10:09 13.64847 100.74967 219 ft 128 kts 14°
2026-05-04 10:09 13.65690 100.75190 85 ft 124 kts 14°
2026-05-04 10:09 13.66519 100.75415 28 ft 119 kts 15°
2026-05-04 10:10 13.67223 100.75593 18 ft 84 kts 14°
2026-05-04 10:10 13.67645 100.75703 16 ft 46 kts 14°
2026-05-04 10:10 13.67886 100.75740 16 ft 27 kts 360°
2026-05-04 10:10 13.68070 100.75699 17 ft 27 kts 344°
2026-05-04 10:11 13.68240 100.75674 18 ft 21 kts
2026-05-04 10:11 13.68380 100.75709 18 ft 15 kts 10°
2026-05-04 10:11 13.68448 100.75677 18 ft 11 kts 301°
2026-05-04 10:11 13.68470 100.75596 18 ft 12 kts 284°
2026-05-04 10:12 13.68491 100.75514 18 ft 12 kts 285°
2026-05-04 10:12 13.68540 100.75454 18 ft 12 kts 347°
2026-05-04 10:12 13.68621 100.75468 18 ft 12 kts 13°
2026-05-04 10:12 13.68685 100.75462 18 ft 7 kts 309°
2026-05-04 10:13 13.68702 100.75409 18 ft 8 kts 285°
2026-05-04 10:13 13.68706 100.75394 18 ft 0 kts 285°